This demonstration page uses our WeatherBlox Daily Observations layout. Learn more.

Left ArrowRight Arrow

36.17497, -115.13722

Hourly Observations for January 6, 2016

Temp ( °F °C ) Dew Point ( °F °C ) Humidity (%) Winds ( mph kmh ) Pressure ( in mb ) Visibility ( mi km ) Precip ( " mm )
12:53 am 00:53 Cloudy 47 8.3 44 6.7 90 90 E 10 17 29.75 1008 10 16 N/A
1:53 am 01:53 Mostly Cloudy 47 8.3 42 5.6 83 83 ESE 6 9 29.79 1009 10 16 N/A
2:53 am 02:53 Mostly Cloudy 46 7.8 44 6.7 93 93 E 6 9 29.79 1009 10 16 N/A
3:53 am 03:53 Cloudy with Rain 45 7.2 43 6.1 93 93 N N/A 29.80 1009 5 8 0.03 0.76
4:15 am 04:15 Cloudy with Rain 45 7.2 43 6.1 93 93 N 5 7 29.77 1008 4 6 0.06 1.52
4:53 am 04:53 Cloudy with Light Rain 45 7.2 44 6.7 97 97 ENE 5 7 29.81 1010 8 13 0.13 3.30
5:01 am 05:01 Cloudy with Light Rain 45 7.2 44 6.7 97 97 NNE 5 7 29.80 1009 10 16 N/A
5:53 am 05:53 Mostly Cloudy 45 7.2 42 5.6 90 90 W 3 6 29.83 1010 10 16 N/A
6:53 am 06:53 Cloudy 45 7.2 43 6.1 93 93 NNW 3 6 29.86 1011 10 16 N/A
7:53 am 07:53 Cloudy 45 7.2 44 6.7 97 97 N N/A 29.88 1012 10 16 N/A
8:53 am 08:53 Sunny 47 8.3 44 6.7 90 90 N N/A 29.91 1013 10 16 N/A
9:53 am 09:53 Sunny 50 10 44 6.7 80 80 E 8 13 29.91 1013 10 16 N/A
10:53 am 10:53 Mostly Cloudy 51 10.6 38 3.3 61 61 E 5 7 29.89 1012 10 16 N/A
11:53 am 11:53 Mostly Cloudy 53 11.7 38 3.3 57 57 SE 10 17 29.84 1011 10 16 N/A
12:53 pm 12:53 Sunny 53 11.7 35 1.7 51 51 SSW 17 28 29.82 1010 10 16 N/A
1:53 pm 13:53 Mostly Sunny 55 12.8 34 1.1 45 45 S 21 33 29.80 1009 10 16 N/A
2:53 pm 14:53 Cloudy 54 12.2 35 1.7 49 49 S 21 33 29.81 1010 10 16 N/A
3:53 pm 15:53 Mostly Cloudy 51 10.6 38 3.3 61 61 S 17 28 29.84 1011 10 16 N/A
4:53 pm 16:53 Partly Cloudy 50 10 37 2.8 61 61 SSW 20 31 29.86 1011 10 16 N/A
5:53 pm 17:53 Cloudy 49 9.4 38 3.3 66 66 S 9 15 29.87 1011 10 16 N/A
6:53 pm 18:53 Cloudy with Light Rain 49 9.4 39 3.9 69 69 SSW 8 13 29.87 1011 10 16 N/A
7:53 pm 19:53 Cloudy 48 8.9 39 3.9 71 71 S 17 28 29.85 1011 10 16 0.01 0.25
8:53 pm 20:53 Clear 47 8.3 38 3.3 71 71 S 15 24 29.83 1010 10 16 N/A
9:53 pm 21:53 Partly Cloudy 47 8.3 37 2.8 69 69 S 17 28 29.81 1010 10 16 N/A
10:53 pm 22:53 Partly Cloudy 47 8.3 37 2.8 69 69 S 15 24 29.80 1009 10 16 N/A
11:53 pm 23:53 Mostly Cloudy 47 8.3 34 1.1 61 61 SW 10 17 29.79 1009 10 16 N/A

Powered by AerisWeather